Meteo Giornale » Osservazioni meteo Stati Uniti (USA) » Londonville

ore: 14:55 - Osservazioni Meteo Londonville
Lat. 44° 34' N Lon. 72° 1' W Alt. 363 metri s.l.m.

nuvoloso

23 °C

Nuvoloso

Temp. 24 Ore

11 °C

23 °C

Sud/Sud-Est

7.4 Km/h

Dew point 12 °C

Umidità 49 %

Visibilità  10 Km

Il sole sorge alle ore 06:10

Il sole tramonta alle ore 19:25

Data e Ora Cielo e Fenomeni T °C DP °C Um. % Pres. hPa Vis. km Vento km/h
Oggi h: 14:55 nuvoloso Nuvoloso 23 12 49 1018 10 S/SE 7.4
Oggi h: 14:35 coperto Coperto 22 12 53 1018 10 N 0
Oggi h: 14:15 coperto Coperto 22 11 49 1018 10 N 0
Oggi h: 13:55 coperto Coperto 22 11 49 1018 10 N 5.5
Oggi h: 13:35 coperto Coperto 22 11 49 1018 10 N 0
Oggi h: 13:15 molto_nuvoloso Molto Nuvoloso 22 12 53 1018 10 N 5.5
Oggi h: 12:55 coperto Coperto 22 11 49 1018 10 N 0
Oggi h: 12:35 coperto Coperto 22 12 53 1018 10 N 0
Oggi h: 12:15 coperto Coperto 21 12 56 1019 10 N 0
Oggi h: 11:55 coperto Coperto 20 12 59 1019 10 N 0
Oggi h: 11:35 coperto Coperto 20 12 59 1019 10 N 0
Oggi h: 11:15 coperto Coperto 20 12 59 1019 10 N 5.5
Oggi h: 10:55 molto_nuvoloso Molto Nuvoloso 19 12 63 1019 10 N 0
Oggi h: 10:35 sereno Sereno 18 12 67 1018 10 N 0
Oggi h: 10:15 sereno Sereno 17 12 72 1019 10 N 0
Oggi h: 09:55 sereno Sereno 16 12 77 1019 10 N 0
Oggi h: 09:35 nuvoloso Nuvoloso 14 12 87 1019 10 N 0
Oggi h: 09:15 sereno Sereno 14 12 87 1019 10 N 0
Oggi h: 08:55 sereno Sereno 13 12 93 1019 10 N 0
Oggi h: 08:35 nuvoloso Nuvoloso 13 12 93 1019 10 N 0
Oggi h: 08:15 molto_nuvoloso Molto Nuvoloso 12 11 93 1019 10 N 0
Oggi h: 07:55 molto_nuvoloso Molto Nuvoloso 12 11 93 1019 10 N 0
Oggi h: 07:35 nuvoloso Nuvoloso 12 11 93 1019 10 N 0
Oggi h: 07:15 molto_nuvoloso Molto Nuvoloso 11 10 93 1019 10 N 0
Oggi h: 06:55 coperto Coperto 11 10 93 1019 10 N 0
Oggi h: 06:35 coperto Coperto 11 11 100 1019 10 N 0
Oggi h: 06:15 molto_nuvoloso Molto Nuvoloso 11 11 100 1019 10 N 0
Oggi h: 05:55 nuvoloso Nuvoloso 11 10 93 1019 10 N 0
Oggi h: 05:35 sereno Sereno 11 10 93 1019 10 N 0
Oggi h: 05:15 sereno Sereno 11 10 93 1019 10 N 0
Oggi h: 04:55 nuvoloso Nuvoloso 11 10 93 1019 10 N 0
Oggi h: 04:35 coperto Coperto 12 10 87 1019 10 N 0
Oggi h: 04:15 coperto Coperto 11 10 93 1019 10 N 0
Oggi h: 03:55 coperto Coperto 12 10 87 1019 10 N 0
Oggi h: 03:35 molto_nuvoloso Molto Nuvoloso 11 10 93 1019 10 N 0
Oggi h: 03:15 coperto Coperto 12 10 87 1019 10 N 0
Oggi h: 02:55 nuvoloso Nuvoloso 11 10 93 1019 10 N 0
Oggi h: 02:35 nuvoloso Nuvoloso 11 10 93 1019 10 N 0
Oggi h: 02:15 coperto Coperto 11 11 100 1019 10 N 0
Oggi h: 01:55 molto_nuvoloso Molto Nuvoloso 11 11 100 1019 10 N 0
Oggi h: 01:35 nuvoloso Nuvoloso 11 10 93 1019 10 N 0
Oggi h: 01:15 nuvoloso Nuvoloso 11 11 100 1020 10 N 0
Oggi h: 00:55 sereno Sereno 11 10 93 1020 10 N 5.5
Oggi h: 00:35 sereno Sereno 11 10 93 1020 10 N 0
Oggi h: 00:15 sereno Sereno 12 11 93 1020 10 N 0
Ieri h: 23:55 nuvoloso Nuvoloso 13 11 87 1019 10 N 0
Ieri h: 23:35 sereno Sereno 13 11 87 1019 10 N 0
Ieri h: 23:15 sereno Sereno 13 11 87 1019 10 N 0
Ieri h: 22:55 nuvoloso Nuvoloso 13 11 87 1019 10 N 0
Ieri h: 22:35 molto_nuvoloso Molto Nuvoloso 13 11 87 1019 10 N 0
Ieri h: 22:15 nuvoloso Nuvoloso 15 11 76 1019 10 N 0
Ieri h: 21:55 sereno Sereno 14 11 82 1019 10 N 0
Ieri h: 21:35 sereno Sereno 14 12 87 1019 10 N 0
Ieri h: 21:15 sereno Sereno 15 12 82 1019 10 N 0
Ieri h: 20:55 sereno Sereno 15 12 82 1019 10 N 0
Ieri h: 20:35 sereno Sereno 15 12 82 1019 10 N 0
Ieri h: 20:15 sereno Sereno 16 12 77 1019 10 N 0
Ieri h: 19:55 sereno Sereno 17 13 77 1019 10 N 5.5
Ieri h: 19:35 sereno Sereno 18 12 67 1019 10 N 0
Ieri h: 19:15 sereno Sereno 19 12 63 1019 10 N 0
Ieri h: 18:55 sereno Sereno 20 11 56 1019 10 N 0
Ieri h: 18:35 sereno Sereno 21 10 49 1019 10 N 0
Ieri h: 18:15 sereno Sereno 22 10 46 1019 10 N 5.5
Ieri h: 17:55 sereno Sereno 22 10 46 1019 10 O/SO 9.3
Ieri h: 17:35 sereno Sereno 22 10 46 1019 10 O 13
Ieri h: 17:15 sereno Sereno 22 10 46 1019 10 O/SO 9.3
Ieri h: 16:55 sereno Sereno 22 10 46 1019 10 O/SO 13
Ieri h: 16:35 sereno Sereno 23 10 43 1019 10 SO 7.4
Ieri h: 16:15 nuvoloso Nuvoloso 23 9 40 1020 10 SO 9.3
Ieri h: 15:55 nuvoloso Nuvoloso 22 11 49 1020 10 N 5.5
Ieri h: 15:35 nuvoloso Nuvoloso 22 12 53 1020 10 N 5.5